www.pogodaiklimat.ru

Погода и климат >> Архив погоды >> Иран >> Fasa


ПОГОДА в Fasa

  • Прогноз погоды в Fasa
  • Монитор погоды в Fasa
  • Климат города

АРХИВ ПОГОДЫ в Fasa

Время (UTC), дата Ветер
(напр.,м/с)
 
Видим.   Явления Облачность Т
(С)
Тd
(С)
f
(%)
Тe
(С)
Тes
(С)
Комфортность P
(гПа)
Po
(гПа)
Тmin
(С)
Tmax
(С)
R
(мм)
R24
(мм)
S
(см)
09 12.11 10 км н/о +21.2 +9.7 48 +23 +26 комфорт 1012.7 872.5
12 12.11 ЮЗ 4 10 км 4/4 1050 м
[Sc diur, vesp]
+22.0 +7.6 39 +23 +24 комфорт 1011.0 871.3
15 12.11 ЮЗ 3 10 км 4/3 1050 м
[Sc diur, vesp Ci sp]
+17.8 +9.2 57 +18 +18 1012.5 871.4 +22.4
18 12.11 штиль 0 10 км ясно +14.2 +8.6 69 +14 +14 1012.9 872.1
21 12.11 штиль 0 10 км ясно +9.6 +7.6 87 +9 +9 1012.3 871.9
00 13.11 штиль 0 10 км ясно +7.4 +5.8 90 +6 +6 1012.3 871.5
03 13.11 СЗ 3 10 км 4/0
[Ci fib]
+5.6 +4.3 91 +2 +2 1014.7 872.1 +5.4
06 13.11 штиль 0 10 км 1/0
[Ci fib]
+15.0 +6.6 57 +15 +22 1014.0 872.9
09 13.11 Ю 4 10 км 3/0
[Ci fib]
+20.6 +1.4 28 +21 +27 комфорт 1011.8 871.0
12 13.11 ЮЗ 5 10 км 3/0
[Ci fib]
+21.8 -2.7 19 +21 +22 комфорт 1010.4 869.5
15 13.11 штиль 0 10 км 3/0
[Ci fib]
+15.8 +0.8 36 +16 +16 1012.7 869.8 +21.8
18 13.11 штиль 0 10 км ясно +11.8 +1.8 50 +12 +12 1011.9 870.4
21 13.11 З 3 10 км ясно +6.4 +0.2 65 +4 +4 1011.5 870.8
00 14.11 С 2 10 км ясно +4.4 -1.7 65 +2 +2 1012.2 870.4
03 14.11 штиль 0 12 км 5/0
[Ac trans Ci sp]
+5.0 -1.6 62 +4 +4 1014.7 871.4 +3.6
06 14.11 штиль 0 12 км 9/0
[Ac trans Cs]
+15.2 +2.2 41 +15 +20 1015.2 873.2
09 14.11 ЮВ 2 12 км 9/1 1200 м
[Sc Ac trans Cs]
+19.8 -1.6 24 +20 +25 1013.3 871.4
12 14.11 Ю 4 12 км 9/4 1200 м
[Sc Ac trans Cs]
+19.6 +0.9 29 +20 +20 1012.9 870.6
15 14.11 Ю 4 12 км 10/5 1200 м
[Sc As op]
+17.2 +4.1 42 +17 +17 1013.6 870.8 +19.8
18 14.11 штиль 0 10 км 8/4 1050 м
[Cb calv Ac As]
+14.2 +4.5 52 +14 +14 1012.2 871.3
21 14.11 штиль 0 10 км 8/3 1200 м
[Sc diur, vesp Ac As]
+13.6 +5.2 57 +13 +13 1011.9 871.9
00 15.11 штиль 0 10 км 9/5 1050 м
[Cb calv Ac As]
+13.6 +8.0 69 +13 +13 1012.3 872.3
03 15.11 штиль 0 10 км 8/4 1050 м
[Cb calv Ac As]
+11.0 +7.1 77 +10 +10 1014.4 873.0 +10.8
06 15.11 штиль 0 10 км {ливн. осадки} 4/3 1200 м
[Sc Cc]
+17.0 +9.9 63 +17 +22 1015.4 874.6 2
09 15.11 В 2 10 км 9/3 1200 м
[Sc Cs]
+20.2 +7.9 45 +22 +27 комфорт 1013.7 873.6
12 15.11 Ю 6 10 км 6/3 1200 м
[Cu med, cong Cs]
+22.6 +7.9 39 +24 +24 комфорт 1012.1 872.8
15 15.11 ЮЗ 3 10 км 8/3 1200 м
[Sc diur, vesp Cs]
+18.6 +9.8 57 +19 +19 1015.1 874.0 +22.8
18 15.11 штиль 0 10 км 6/3 1200 м
[Sc diur, vesp Ci fib]
+15.8 +8.8 63 +16 +16 1015.6 875.1
21 15.11 штиль 0 10 км 3/0
[Ci fib]
+12.4 +9.0 80 +12 +12 1015.6 875.1
00 16.11 СВ 2 10 км 3/0
[Ci fib]
+11.0 +8.7 86 +10 +10 1015.1 874.9
03 16.11 С 2 10 км 4/0
[Ci fib]
+10.4 +8.1 86 +9 +9 1017.2 875.6 +9.2
06 16.11 штиль 0 12 км 8/4 1050 м
[Sc diur, vesp Cs]
+17.6 +10.2 62 +18 +21 1017.0 876.5
09 16.11 Ю 6 12 км 8/5 1050 м
[Cu Sc Cs]
+23.4 +7.6 36 +24 +26 комфорт 1014.7 875.0
12 16.11 Ю 5 12 км 8/6 1050 м
[Cb calv Cs]
+23.0 +8.0 38 +24 +24 комфорт 1014.5 874.4
15 16.11 С 4 4000 м слабый дождь {ливн. осадки} 10/8 900 м
[Cb calv As op]
+14.4 +13.7 96 +13 +13 1020.4 877.7 +23.6
18 16.11 штиль 0 8000 м дымка {дождь} 6/3 1200 м
[Sc diur, vesp Ac cuf Cs]
+13.2 +12.9 98 +13 +13 1018.6 877.4 5
21 16.11 штиль 0 10 км 3/0
[Ci fib]
+11.4 +11.0 97 +11 +11 1016.5 876.4
00 17.11 штиль 0 10 км ясно +10.2 +9.8 97 +9 +9 1016.1 875.7
03 17.11 штиль 0 10 км 3/0
[Ac trans Ci fib]
+9.6 +9.2 97 +9 +9 1019.0 876.1 +9.4
06 17.11 штиль 0 10 км 1/0
[Ci fib]
+14.4 +12.3 87 +14 +21 1018.8 876.9
09 17.11 Ю 3 10 км 3/3 1200 м
[Cu med, cong]
+21.0 +10.7 52 +23 +29 комфорт 1015.3 874.8
12 17.11 ЮЗ 4 10 км 6/6 1050 м
[Cb calv]
+22.2 +10.6 48 +24 +25 комфорт 1013.1 872.9
15 17.11 Ю 2 8000 м мгла {гроза, ливн. осадки} 6/4 1050 м
[Cb calv Ac As]
+17.8 +10.8 64 +18 +18 1015.1 873.6 +22.8
18 17.11 С 2 10 км {гроза, ливн. осадки} ясно +14.4 +10.9 79 +14 +14 1015.6 874.3 0.4
21 17.11 СЗ 2 10 км ясно +10.6 +9.1 90 +9 +9 1014.3 873.2
00 18.11 СЗ 2 10 км ясно +8.0 +6.0 87 +6 +6 1013.6 872.7
03 18.11 СЗ 3 12 км ясно +6.2 +3.6 83 +3 +3 1016.1 873.4 +6.2
06 18.11 штиль 0 12 км ясно +15.2 +6.8 57 +15 +22 1016.5 875.1
09 18.11 штиль 0 12 км ясно +21.4 +0.9 26 +21 +33 комфорт 1012.9 872.3
12 18.11 штиль 0 12 км ясно +22.4 -0.7 21 +21 +24 комфорт 1012.2 871.4
15 18.11 штиль 0 10 км ясно +15.8 +5.2 49 +16 +16 1014.7 871.7 +22.8
18 18.11 штиль 0 10 км ясно +10.4 +4.6 67 +10 +10 1014.7 872.5
21 18.11 штиль 0 10 км ясно +8.6 +4.4 75 +8 +8 872.3
00 19.11 штиль 0 10 км ясно +6.6 +3.5 81 +6 +6 1013.3 872.1
03 19.11 штиль 0 10 км ясно +4.8 +2.5 85 +4 +4 1016.9 873.2 +4.4
06 19.11 штиль 0 10 км ясно +15.4 +5.6 52 +15 +22 1016.9 874.6

 

Местоположение метеостанции Fasa (Иран): широта 28.97 долгота 53.68 высота над уровнем моря 1288 м.

В архиве по умолчанию представлена погода в Fasa за последнюю неделю. Архивные данные за месяц целиком и за предыдущие месяцы, начиная с января 2011 года, Вы можете получить, выбрав интересующий диапазон дат из раскрывающегося списка и нажав кнопку "Ввод!".


*Определитесь, кто Вы:
робот инопланетянин человек

Внимание! Время в таблицах - всемирное. Для получения местного времени необходимо прибавить поправку, которая в Fasa равна 3.5 ч.

Смотрите также архив погоды в соседних городах и на ближайших метеорологических станциях:

Погода в Shiraz (Иран) (128 км)
Погода в Sirjan (Иран) (206 км)
Погода в Bandar Deyr (Иран) (213 км)
Погода в Abadeh (Иран) (264 км)
Погода в Bushehr (Иран) (275 км)
Погода в Kish Island (Иран) (276 км)
Погода в Yasuj (Иран) (277 км)
Погода в Bushehr Airport (Иран) (277 км)
Погода в Baft (Иран) (282 км)
Погода в Bandar Lengeh (Иран) (289 км)

Пояснения к столбцам:

Ветер - указаны скорость ветра в м/с - средняя за 10 мин, порывы в срок и между сроками (в фигурных скобках) и направление, откуда дует ветер: С - северный, СВ - северо-восточный, В - восточный, ЮВ - юго-восточный, Ю - южный, ЮЗ - юго-западный, З - западный, СЗ - северо-западный.
Видимость - горизонтальная дальность видимости в метрах или километрах. При видимости от 1 до 10 км при отсутствии осадков обычно наблюдается дымка, при ухудшении видимости до 1 км и менее - туман. В сухую погоду видимость может ухудшаться дымом, пылью или мглою.
Явления - указаны атмосферные явления, наблюдавшиеся в срок или в последний час перед сроком; фигурными скобками обозначены явления, наблюдавшиеся между сроками (за 1-3 часа до срока); квадратными скобками обозначены град или гололедные отложения с указанием их диаметра в мм.
Облачность - указаны через наклонную черту общая и нижняя облачность в баллах и высота нижней границы облаков в метрах; квадратными скобками обозначены формы облаков: Ci - перистые, Cs - перисто-слоистые, Cc - перисто-кучевые, Ac - высококучевые, As - высокослоистые, Sc - слоисто-кучевые, Ns - слоисто-дождевые, Cu - кучевые, Cb - кучево-дождевые. Подробнее классификацию облаков см. в Атласе облаков (PDF).
T - Температура воздуха - температура, измеренная на высоте 2 м над землей.
Td - Температура точки росы - температура, при понижении до которой содержащийся в воздухе водяной пар достигнет насыщения.
f - Относительная влажность воздуха - влажноcть воздуха, измеренная на высоте 2 м над землей.
Te - Эффективная температура - температура, которую ощущает одетый по сезону человек в тени. Характеристика душности погоды. При расчете учитывается влияние влажности воздуха и скорости ветра на теплоощущения человека.
Tes - Эффективная температура на солнце - температура, которую ощущает человек, с поправкой на солнечный нагрев. Характеристика знойности погоды. Зависит от высоты солнца над горизонтом, облачности и скорости ветра. Ночью, в пасмурную погоду, а также при ветре 12 м/с и более поправка равна нулю.
P - Атмосферное давление - приведенное к уровню моря атмосферное давление.
Po - Атмосферное давление - измеренное на уровне метеостанции атмосферное давление.
Tmin - Минимальная температура - минимум температуры воздуха на высоте 2 м над землей.
Tmax - Максимальная температура - максимум температуры воздуха на высоте 2 м над землей.
R - Количество осадков - Количество выпавших осадков за период времени, мм. При наведении курсора мыши на число - период времени, за который выпало указанное количество осадков.
R24 - Количество осадков - Количество выпавших осадков за 24 часа, мм.
S - Снежный покров - Высота снежного покрова, см. При наведении курсора мыши на число - состояние снежного покрова и степень покрытия местности в баллах.